FW2178 Weather Reports


Display with metric or nautical units.
time (UTC)temp
F
wind
direction
speed
MPH
gust
MPH
rain 1hr
in
rain 24hr
in
rain mn
in
humidity
%
barometer
mb
20260504060203 57 155 0.0 0.0 0.00 0.00 0.00 76 1008.5
20260504050706 59 156 0.0 0.0 0.00 0.00 0.00 70 1008.5
20260504050204 60 156 0.0 0.0 0.00 0.00 0.00 70 1008.0
20260504045703 60 156 0.0 0.0 0.00 0.00 0.00 70 1008.2
20260504045208 60 156 0.0 0.0 0.00 0.00 0.00 71 1008.1
20260504045009 60 156 0.0 0.0 0.00 0.00 0.00 72 1007.9
20260504044204 60 156 0.0 0.0 0.00 0.00 0.00 71 1008.0
20260504043704 61 156 0.0 0.0 0.00 0.00 0.00 72 1008.1
20260504043205 61 156 0.0 0.0 0.00 0.00 0.00 71 1008.0
20260504042703 61 156 0.0 0.0 0.00 0.00 0.00 71 1008.0
20260504042450 62 156 0.0 0.0 0.00 0.00 0.00 68 1008.0
20260504041705 62 156 0.0 0.0 0.00 0.00 0.00 71 1008.0
20260504041207 62 156 0.0 0.0 0.00 0.00 0.00 70 1008.2
20260504040705 62 156 0.0 0.0 0.00 0.00 0.00 69 1008.1
20260504040207 62 156 0.0 0.0 0.00 0.00 0.00 69 1008.2
20260504035704 62 156 0.0 0.0 0.00 0.00 0.00 71 1008.1
20260504035204 63 156 0.0 0.0 0.00 0.00 0.00 71 1007.9
20260504034706 63 156 0.0 0.0 0.00 0.00 0.00 71 1007.9
20260504034456 63 156 0.0 0.0 0.00 0.00 0.00 73 1007.8
20260504033703 63 156 0.0 0.0 0.00 0.00 0.00 71 1008.0
20260504033208 64 156 0.0 0.0 0.00 0.00 0.00 71 1008.1
20260504032953 64 155 0.0 0.0 0.00 0.00 0.00 71 1007.9
20260504032204 64 155 0.0 0.0 0.00 0.00 0.00 73 1008.1
20260504031708 64 155 0.0 0.0 0.00 0.00 0.00 71 1007.9
20260504031203 64 155 0.0 0.0 0.00 0.00 0.00 74 1007.8
20260504030704 65 155 0.0 0.0 0.00 0.00 0.00 72 1007.8
20260504030206 65 155 0.0 0.0 0.00 0.00 0.00 72 1007.8
20260504025703 65 155 0.0 0.0 0.00 0.00 0.00 71 1007.8
20260504025204 65 155 0.0 0.0 0.00 0.00 0.00 71 1007.9
20260504024707 65 155 0.0 0.0 0.00 0.00 0.00 70 1007.7
20260504024205 66 155 0.0 0.0 0.00 0.00 0.00 72 1007.9
20260504023733 66 154 0.0 0.0 0.00 0.00 0.00 74 1007.9
20260504022704 67 154 0.0 0.0 0.00 0.00 0.00 68 1008.1
20260504022205 67 154 0.0 0.0 0.00 0.00 0.00 68 1008.2
20260504021706 67 154 0.0 0.0 0.00 0.00 0.00 70 1007.8
20260504021204 67 155 0.0 0.0 0.00 0.00 0.00 70 1007.8
20260504020704 67 154 0.0 0.0 0.00 0.00 0.00 68 1008.0
20260504020206 68 154 0.0 0.0 0.00 0.00 0.00 68 1008.0
20260504015705 68 154 0.0 0.0 0.00 0.00 0.00 66 1008.1
20260504015204 69 154 0.0 0.0 0.00 0.00 0.00 63 1008.0
20260504014705 69 145 0.0 0.0 0.00 0.00 0.00 64 1008.1
20260504014202 70 154 0.0 0.0 0.00 0.00 0.00 62 1008.3
20260504013702 70 152 0.0 0.0 0.00 0.00 0.00 65 1008.2
20260504013208 71 150 0.0 0.0 0.00 0.00 0.00 63 1008.0
20260504012702 71 140 0.0 0.0 0.00 0.00 0.00 59 1008.0
20260504012452 71 159 0.0 0.0 0.00 0.00 0.00 62 1008.2
20260504011702 71 154 0.0 0.0 0.00 0.00 0.00 63 1008.3
20260504011509 71 128 0.0 0.0 0.00 0.00 0.00 57 1008.3
20260504010706 71 148 0.0 0.0 0.00 0.00 0.00 63 1008.3
20260504010206 71 148 0.0 0.0 0.00 0.00 0.00 61 1008.4
20260504005745 73 148 0.0 0.0 0.00 0.00 0.00 60 1008.3
20260504005727 72 148 0.0 0.0 0.00 0.00 0.00 57 1008.4
20260504004702 72 148 0.0 0.0 0.00 0.00 0.00 60 1008.5
20260504004203 73 122 0.0 0.0 0.00 0.00 0.00 55 1008.6
20260504003702 73 156 0.0 0.0 0.00 0.00 0.00 57 1008.5
20260504003203 74 161 0.0 0.0 0.00 0.00 0.00 56 1008.3
20260504002949 74 158 0.0 0.0 0.00 0.00 0.00 58 1008.5
20260504002202 74 140 0.0 0.0 0.00 0.00 0.00 55 1008.5
20260504001703 74 115 0.0 0.0 0.00 0.00 0.00 45 1008.6
20260504001205 73 130 0.0 0.0 0.00 0.00 0.00 53 1008.4
20260504000950 73 149 0.0 0.0 0.00 0.00 0.00 55 1008.6
20260504000204 74 129 0.0 0.0 0.00 0.00 0.00 53 1008.7
20260503235702 74 154 0.0 0.0 0.00 0.00 0.00 55 1008.7
20260503235202 74 166 0.0 0.0 0.00 0.00 0.00 58 1008.9
20260503234702 75 126 0.0 0.0 0.00 0.00 0.00 54 1008.7
20260503234203 75 158 0.0 0.0 0.00 0.00 0.00 51 1008.6
20260503233702 74 140 0.0 1.0 0.00 0.00 0.00 51 1008.8
20260503233203 74 158 0.0 1.0 0.00 0.00 0.00 54 1009.0
20260503232953 74 153 0.0 0.0 0.00 0.00 0.00 53 1009.0
20260503232449 75 162 0.0 1.0 0.00 0.00 0.00 48 1009.2
20260503231702 75 104 0.0 1.0 0.00 0.00 0.00 42 1009.2
20260503231202 75 156 0.0 1.0 0.00 0.00 0.00 46 1009.2
20260503230702 76 156 0.0 2.0 0.00 0.00 0.00 49 1009.3
20260503230203 75 119 0.0 2.0 0.00 0.00 0.00 43 1009.4
20260503225701 75 99 1.0 1.0 0.00 0.00 0.00 53 1009.2
20260503225201 75 136 0.0 1.0 0.00 0.00 0.00 45 1009.6
20260503224950 75 99 0.0 1.0 0.00 0.00 0.00 48 1009.7
20260503224202 75 137 0.0 2.0 0.00 0.00 0.00 46 1009.6
20260503223702 75 163 0.0 2.0 0.00 0.00 0.00 45 1009.7
20260503223202 74 133 1.0 2.0 0.00 0.00 0.00 42 1009.8
20260503222702 74 120 0.0 2.0 0.00 0.00 0.00 46 1009.8
20260503222202 74 97 1.0 2.0 0.00 0.00 0.00 46 1009.7
20260503221949 75 95 1.0 2.0 0.00 0.00 0.00 46 1010.0
20260503221203 75 140 0.0 2.0 0.00 0.00 0.00 46 1009.9
20260503220702 75 107 1.0 2.0 0.00 0.00 0.00 44 1010.0
20260503220202 75 95 1.0 2.0 0.00 0.00 0.00 44 1010.3
20260503215702 75 137 0.0 2.0 0.00 0.00 0.00 45 1010.2
20260503215454 75 132 0.0 2.0 0.00 0.00 0.00 46 1010.3
20260503214702 75 105 1.0 2.0 0.00 0.00 0.00 46 1010.4
20260503214203 75 144 1.0 2.0 0.00 0.00 0.00 44 1010.3
20260503213701 75 140 0.0 2.0 0.00 0.00 0.00 45 1010.4
20260503213457 75 157 0.0 2.0 0.00 0.00 0.00 45 1010.3
20260503212702 75 139 0.0 3.0 0.00 0.00 0.00 48 1010.3
20260503212236 75 112 1.0 2.0 0.00 0.00 0.00 47 1010.5
20260503212226 75 116 1.0 3.0 0.00 0.00 0.00 46 1010.5
20260503211205 75 134 0.0 2.0 0.00 0.00 0.00 48 1010.3
20260503210702 75 142 0.0 2.0 0.00 0.00 0.00 48 1010.6
20260503210202 75 152 0.0 2.0 0.00 0.00 0.00 45 1010.7
20260503205703 75 154 0.0 2.0 0.00 0.00 0.00 46 1010.7
20260503205202 74 166 1.0 1.0 0.00 0.00 0.00 50 1010.7
20260503204703 75 151 0.0 3.0 0.00 0.00 0.00 47 1010.6
20260503204203 75 127 1.0 3.0 0.00 0.00 0.00 45 1010.9
20260503204015 75 162 1.0 3.0 0.00 0.00 0.00 44 1010.8
20260503203203 75 138 0.0 3.0 0.00 0.00 0.00 47 1010.7
20260503202702 74 120 0.0 1.0 0.00 0.00 0.00 46 1010.8
20260503202202 74 147 0.0 2.0 0.00 0.00 0.00 47 1010.8
20260503201702 74 146 1.0 2.0 0.00 0.00 0.00 45 1011.0
20260503201202 74 148 0.0 1.0 0.00 0.00 0.00 47 1011.1
20260503200701 74 161 0.0 2.0 0.00 0.00 0.00 49 1011.2
20260503200202 73 132 0.0 2.0 0.00 0.00 0.00 46 1011.2
20260503195702 73 147 0.0 2.0 0.00 0.00 0.00 46 1011.2
20260503195203 73 149 0.0 2.0 0.00 0.00 0.00 48 1011.5
20260503194955 73 109 1.0 2.0 0.00 0.00 0.00 47 1011.3
20260503194202 73 139 1.0 2.0 0.00 0.00 0.00 46 1011.4
20260503193703 73 82 1.0 1.0 0.00 0.00 0.00 49 1011.5
20260503193202 72 130 0.0 2.0 0.00 0.00 0.00 47 1011.7
20260503192702 72 124 0.0 2.0 0.00 0.00 0.00 51 1011.8
20260503192202 72 153 0.0 4.0 0.00 0.00 0.00 50 1011.7
20260503191958 71 134 0.0 4.0 0.00 0.00 0.00 51 1011.9
20260503191159 71 162 0.0 2.0 0.00 0.00 0.00 53 1011.9
20260503190659 71 153 0.0 2.0 0.00 0.00 0.00 50 1011.8
20260503190156 71 156 0.0 0.0 0.00 0.00 0.00 52 1012.2
20260503185653 71 131 0.0 0.0 0.00 0.00 0.00 53 1011.9
20260503185153 70 88 0.0 0.0 0.00 0.00 0.00 52 1011.9
20260503184651 70 103 0.0 0.0 0.00 0.00 0.00 57 1012.1
20260503184150 70 151 0.0 0.0 0.00 0.00 0.00 57 1012.0
20260503183651 69 110 0.0 0.0 0.00 0.00 0.00 54 1012.2
20260503183149 69 131 0.0 0.0 0.00 0.00 0.00 58 1012.2
20260503182657 68 137 0.0 0.0 0.00 0.00 0.00 56 1012.4
20260503182152 68 129 0.0 0.0 0.00 0.00 0.00 57 1012.3
20260503181651 69 157 0.0 0.0 0.00 0.00 0.00 58 1012.3
20260503181149 68 159 0.0 0.0 0.00 0.00 0.00 59 1012.2
20260503180651 68 154 0.0 0.0 0.00 0.00 0.00 57 1012.4
20260503180150 68 154 0.0 0.0 0.00 0.00 0.00 58 1012.4
20260503175650 68 144 0.0 0.0 0.00 0.00 0.00 57 1012.5
20260503175151 67 151 0.0 0.0 0.00 0.00 0.00 58 1012.3
20260503175013 67 156 0.0 0.0 0.00 0.00 0.00 64 1012.5
20260503175007 67 134 0.0 0.0 0.00 0.00 0.00 61 1012.3
20260503173650 67 137 0.0 0.0 0.00 0.00 0.00 57 1012.5
20260503173150 68 154 0.0 0.0 0.00 0.00 0.00 60 1012.5
20260503172648 68 132 0.0 0.0 0.00 0.00 0.00 60 1012.7
20260503172147 67 117 0.0 0.0 0.00 0.00 0.00 58 1012.5
20260503171648 67 129 0.0 0.0 0.00 0.00 0.00 62 1012.5
20260503171145 67 152 0.0 0.0 0.00 0.00 0.00 64 1012.4
20260503170646 67 147 0.0 0.0 0.00 0.00 0.00 66 1012.8
20260503170146 67 147 0.0 0.0 0.00 0.00 0.00 60 1012.6
20260503160146 61 159 0.0 0.0 0.00 0.00 0.00 80 1012.9
20260503150638 54 129 0.0 0.0 0.00 0.00 0.00 91 1012.9
20260503150136 54 129 0.0 0.0 0.00 0.00 0.00 92 1013.0
20260503140137 50 129 0.0 0.0 0.00 0.00 0.00 95 1012.9
20260503131137 49 130 0.0 0.0 0.00 0.00 0.00 95 1012.7
20260503130638 49 131 0.0 0.0 0.00 0.00 0.00 95 1012.7
20260503130137 49 130 0.0 0.0 0.00 0.00 0.00 94 1012.5
20260503120135 49 132 0.0 0.0 0.00 0.00 0.00 93 1012.7
20260503110736 50 132 0.0 0.0 0.00 0.00 0.00 93 1013.1
20260503110717 50 132 0.0 0.0 0.00 0.00 0.00 93 1013.0
20260503090136 52 157 0.0 0.0 0.00 0.00 0.00 84 1013.0
20260503081136 53 157 0.0 0.0 0.00 0.00 0.00 83 1013.4
20260503080635 53 157 0.0 0.0 0.00 0.00 0.00 83 1012.9
20260503080150 54 157 0.0 0.0 0.00 0.00 0.00 83 1013.2
20260503072635 54 157 0.0 0.0 0.00 0.00 0.00 83 1013.1
20260503072135 54 157 0.0 0.0 0.00 0.00 0.00 84 1013.1
20260503071636 54 157 0.0 0.0 0.00 0.00 0.00 84 1012.9
20260503071136 55 157 0.0 0.0 0.00 0.00 0.00 83 1013.1
20260503070636 55 158 0.0 0.0 0.00 0.00 0.00 80 1012.9
20260503070137 55 158 0.0 0.0 0.00 0.00 0.00 80 1013.0